Location: Unspecified
(0.0000°N, 0.0000°E)
Time: 17:45:32
(UTC+00:00)

Vanguard 3 - All Passes

Search period start: 31 August 2015 00:00
Search period end: 10 September 2015 00:00
Orbit: 508 x 3270 km, 33.4° (Epoch: 30 August)

Date Brightness Start Highest point End Pass type
(mag) Time Alt. Az. Time Alt. Az. Time Alt. Az.
31 Aug - 04:16:03 10° N 04:22:49 15° NNE 04:31:46 10° NE visible
31 Aug - 06:27:34 10° NNW 06:42:54 36° NNE 07:00:17 10° E daylight
31 Aug - 08:41:36 10° NW 09:01:41 79° NE 09:18:27 10° ESE daylight
31 Aug - 11:00:19 10° WNW 11:18:34 46° SW 11:30:55 10° SSE daylight
31 Aug - 13:29:00 10° SW 13:34:39 13° SSW 13:38:30 10° S daylight
31 Aug - 20:17:56 10° SSW 20:21:01 25° SE 20:24:27 10° E visible
31 Aug - 22:29:07 10° W 22:32:44 26° NNW 22:37:40 10° NNE night (unlit)
01 Sep - 05:14:09 10° NNW 05:25:41 24° NNE 05:40:34 10° ENE visible
01 Sep - 07:26:34 10° NW 07:44:50 57° NNE 08:03:07 10° ESE daylight
01 Sep - 09:42:33 10° WNW 10:02:40 68° SW 10:17:53 10° SE daylight
01 Sep - 12:05:36 10° W 12:19:13 25° SSW 12:28:25 10° SSE daylight
01 Sep - 21:15:59 10° WSW 21:19:37 61° NW 21:24:18 10° NE night (unlit)
01 Sep - 23:31:52 10° NNW 23:32:55 10° NNW 23:33:51 10° N night (unlit)
02 Sep - 04:01:52 10° N 04:08:39 15° NNE 04:17:54 10° NE visible
02 Sep - 06:12:32 10° NNW 06:27:51 40° NNE 06:45:59 10° E daylight
02 Sep - 08:26:22 10° NW 08:46:12 87° NE 09:03:48 10° SE daylight
02 Sep - 10:45:26 10° W 11:03:28 41° SW 11:16:17 10° SSE daylight
02 Sep - 13:15:32 10° SW 13:20:29 12° SSW 13:23:50 10° S daylight
02 Sep - 20:03:30 10° SW 20:07:01 38° SE 20:10:40 10° ENE visible
02 Sep - 22:16:09 10° WNW 22:18:56 17° NNW 22:22:15 10° NNE night (unlit)
03 Sep - 04:59:25 10° NNW 05:11:00 27° NNE 05:26:30 10° E visible
03 Sep - 07:11:27 10° NW 07:29:25 64° NE 07:48:28 10° ESE daylight
03 Sep - 09:27:29 10° WNW 09:47:17 61° SW 10:03:08 10° SE daylight
03 Sep - 11:51:20 10° WSW 12:04:36 23° SSW 12:13:50 10° SSE daylight
03 Sep - 18:51:51 10° S 18:54:03 14° SSE 18:56:10 10° ESE visible
03 Sep - 21:02:16 10° WSW 21:05:42 37° NNW 21:09:43 10° NE night (unlit)
04 Sep - 03:47:29 10° N 03:54:25 16° NNE 04:04:06 10° ENE visible
04 Sep - 05:57:36 10° NNW 06:12:41 45° NE 06:31:27 10° ESE daylight
04 Sep - 08:11:18 10° NW 08:30:40 84° SW 08:48:59 10° SE daylight
04 Sep - 10:30:45 10° W 10:48:25 37° SSW 11:01:34 10° SSE daylight
04 Sep - 13:02:02 10° SW 13:06:23 11° SSW 13:09:20 10° S daylight
04 Sep - 19:49:11 10° SW 19:53:03 64° SE 19:56:45 10° ENE visible
04 Sep - 22:04:27 10° NNW 22:05:08 10° NNW 22:05:40 10° NNW night (unlit)
05 Sep - 04:44:42 10° NNW 04:56:14 29° NNE 05:12:14 10° E visible
05 Sep - 06:56:28 10° NW 07:13:56 72° NE 07:33:37 10° ESE daylight
05 Sep - 09:12:36 10° WNW 09:31:54 54° SW 09:48:16 10° SE daylight
05 Sep - 11:37:15 10° WSW 11:50:03 21° SSW 11:59:14 10° SSE daylight
05 Sep - 18:36:36 10° SSW 18:40:11 22° SSE 18:43:12 10° E visible
05 Sep - 20:48:45 10° W 20:51:46 23° NNW 20:54:59 10° NNE visible
06 Sep - 03:32:59 10° N 03:40:05 17° NNE 03:50:14 10° ENE visible
06 Sep - 05:42:45 10° NW 05:57:26 50° NE 06:16:41 10° ESE daylight
06 Sep - 07:56:24 10° WNW 08:15:08 76° SW 08:34:00 10° SE daylight
06 Sep - 10:16:17 10° W 10:33:26 33° SSW 10:46:45 10° SSE daylight
06 Sep - 12:48:15 10° SW 12:52:21 11° SSW 12:55:12 10° S daylight
06 Sep - 17:24:40 10° S 17:26:34 12° SSE 17:28:23 10° SE daylight
06 Sep - 19:34:57 10° WSW 19:39:04 77° NW 19:42:43 10° NE visible
07 Sep - 04:30:00 10° NNW 04:41:21 33° NE 04:57:44 10° E visible
07 Sep - 06:41:38 10° NW 06:58:25 80° NE 07:18:34 10° ESE daylight
07 Sep - 08:57:56 10° WNW 09:16:35 49° SSW 09:33:16 10° SE daylight
07 Sep - 11:23:18 10° WSW 11:35:35 19° SSW 11:44:40 10° SSE daylight
07 Sep - 18:21:38 10° SW 18:26:18 35° SSE 18:29:49 10° E visible
07 Sep - 20:35:32 10° WNW 20:37:48 15° NNW 20:40:00 10° N visible
08 Sep - 03:18:26 10° N 03:25:40 19° NNE 03:36:15 10° ENE visible
08 Sep - 05:28:01 10° NW 05:42:09 56° NE 06:01:42 10° ESE visible
08 Sep - 07:41:40 10° WNW 07:59:38 68° SW 08:18:51 10° SE daylight
08 Sep - 10:02:00 10° W 10:18:33 30° SSW 10:31:53 10° SSE daylight
08 Sep - 12:33:58 10° SSW 12:38:22 11° SSW 12:41:36 10° S daylight
08 Sep - 17:08:28 10° SSW 17:12:48 18° SSE 17:16:09 10° ESE daylight
08 Sep - 19:20:47 10° WSW 19:25:03 47° NW 19:28:34 10° NE visible
09 Sep - 04:15:22 10° NNW 04:26:25 36° NE 04:43:02 10° E visible
09 Sep - 06:26:56 10° NW 06:42:57 88° NE 07:03:20 10° SE daylight
09 Sep - 08:43:30 10° W 09:01:21 43° SSW 09:18:09 10° SE daylight
09 Sep - 11:09:26 10° WSW 11:21:13 18° SSW 11:30:10 10° SSE daylight
09 Sep - 15:55:14 10° S 15:58:32 13° SSE 16:01:25 10° SE daylight
09 Sep - 18:06:46 10° SW 18:12:22 56° SSE 18:16:13 10° ENE daylight
